User: anonymous   Login
Location: Unspecified
(0.0000°N, 0.0000°E)
Time: 03:05:58
(UTC+00:00)
Language:

IRVINE01 - Orbit

View from above orbital plane
View from above orbital plane
View from above satellite
View from above satellite

Ground track
Ground track

The orbit data is extracted from the following two-line orbital elements,

1 43693U 18088D   19168.16797344  .00001724  00000-0  74893-4 0  9995
2 43693  85.0346 319.1211 0017911 191.7936 168.2889 15.21363413 33137
Epoch (UTC): 17 June 2019 04:01:52
Eccentricity: 0.0017911
inclination: 85.0346°
perigee height: 489 km
apogee height: 514 km
right ascension of ascending node: 319.1211°
argument of perigee: 191.7936°
revolutions per day: 15.21363413
mean anomaly at epoch: 168.2889°
orbit number at epoch: 3313

The dashed part of the orbit path shows where the satellite is in the earth's shadow,  

DLR